Location: Dunedin
(45.8670°S, 170.5000°E)
Time: 00:20:25
(UTC+13:00)

Cosmos 2322 Rocket - Pass Details

Date: 24 January 2019
Orbit: 834 x 849 km, 71.0° (Epoch: 17 October)

Event Time Altitude Azimuth Distance (km) Brightness Sun altitude
Rises 22:58:46 0° 324° (NW) 3,394 5.2 -14.2°
Reaches altitude 10° 23:01:14 10° 321° (NW) 2,469 4.5 -14.5°
Maximum altitude 23:06:51 61° 240° (WSW) 970 2.8 -15.2°
Drops below altitude 10° 23:12:33 10° 159° (SSE) 2,506 5.1 -15.8°
Sets 23:15:04 0° 155° (SSE) 3,449 5.8 -16.1°
